[[{"header":{"parameterUnit":"m.s-1","parameterCategory":2,"la1":30.2991,"la2":30.254,"lo1":-89.0895,"lo2":-89.0444,"dy":0.0017,"dx":0.0017,"nx":28,"ny":28,"refTime":"2023-09-23T03:00:00:Z","depth":"0","parameterNumber":2,"parameterNumberName":"U-component_of_CURRENTS"},"data":[0,0,0,0,0,0,0,0,0,0,0,0,0,0,0,0,0,0,0,0,0,0,0,0,0,0,0,0,0,0,0,0,0,0,0,0,0,0,0,0,0,0,0,0,0,0,0,0,0,0,0,0,0,0,0,0,0,0,0.401,0.4011,0,0.404,0.404,0.4039,0.3973,0.3972,0.3971,0.3969,0.401,0.4012,0.4014,0,0,0,0,0,0,0,0,0,0,0,0,0,0.3903,0.3904,0.4009,0.4011,0.4012,0.404,0.404,0.4039,0.3973,0.3972,0.397,0.3969,0.4009,0.4012,0.4014,0,0,0,0,0,0,0,0,0,0,0,0,0,0.3932,0.3905,0.4009,0.3991,0.399,0.404,0.404,0.4039,0.3973,0.3972,0.397,0.3968,0.4008,0.4011,0.4015,0.4068,0,0,0.4024,0.4026,0,0,0,0,0,0,0,0,0.3931,0.3935,0.3992,0.3993,0.3992,0.4011,0.4018,0.4053,0.3974,0.3968,0.3969,0.3968,0.402,0.4022,0.4015,0.4069,0.4071,0.4025,0.4027,0.4028,0.4029,0,0,0,0,0,0,0,0.3929,0.3933,0.401,0.3994,0.3994,0.3986,0.3986,0.4023,0.3994,0.3968,0.3966,0.3988,0.4018,0.4012,0.4016,0.4072,0.4024,0.4027,0.4029,0.4031,0.417,0.4172,0,0,0,0,0,0,0.3949,0.3932,0.4009,0.4012,0.3969,0.3989,0.399,0.3997,0.3994,0.3995,0.399,0.3985,0.4008,0.4012,0.4017,0.4137,0.4028,0.4031,0.4033,0.4168,0.417,0.4172,0,0,0,0,0,0,0.3947,0.3955,0.4008,0.3982,0.399,0.3994,0.4002,0.3999,0.3995,0.4012,0.401,0.3991,0.4006,0.4013,0.4038,0.4136,0.4032,0.4035,0.4166,0.4169,0.4171,0.4342,0,0,0,0,0,0,0.3943,0.3954,0.3961,0.3983,0.3992,0.4048,0.4005,0.4001,0.4017,0.4011,0.4014,0.4014,0.4006,0.4033,0.4041,0.4139,0.4038,0.4164,0.4167,0.417,0.4334,0.435,0.4364,0,0,0,0,0,0.3939,0.3958,0.3961,0.3971,0.4003,0.4051,0.4054,0.4044,0.4019,0.4029,0.4014,0.4014,0.4061,0.4036,0.4045,0.4147,0.4162,0.4166,0.417,0.4327,0.4347,0.4363,0,0,0,0,0,0,0.3906,0.3955,0.3958,0.3987,0.4025,0.4044,0.4059,0.4055,0.4051,0.4049,0.4031,0.4032,0.4099,0.4081,0.4055,0.419,0.4116,0.4122,0.4233,0.4251,0.4266,0.4291,0.404,0,0,0,0,0,0.391,0.394,0.3984,0.4011,0.4032,0.4047,0.4064,0.4074,0.4082,0.4077,0.4082,0.409,0.4125,0.4149,0.4167,0.4241,0.4228,0.4309,0.4324,0.4337,0.436,0.4365,0.4383,0.4185,0.4185,0.4185,0,0,0.3906,0.3941,0.3955,0.4009,0.4029,0.4092,0.4049,0.4099,0.416,0.409,0.4152,0.4146,0.415,0.4229,0.426,0.4228,0.4397,0.4342,0.4354,0.437,0.4371,0.4391,0.4408,0.4188,0.4188,0.4187,0,0,0.3928,0.3945,0.3981,0.4026,0.4093,0.4128,0.4149,0.419,0.4209,0.4272,0.4245,0.4279,0.4324,0.4355,0.4374,0.448,0.4469,0.4498,0.4614,0.4619,0.4636,0.4651,0.4709,0.4728,0.4513,0.4514,0.4514,0,0.3921,0.3966,0.3999,0.4058,0.4105,0.4151,0.4212,0.4267,0.4314,0.4343,0.4312,0.4381,0.4393,0.4495,0.4542,0.4525,0.4529,0.4554,0.4642,0.4655,0.4667,0.4723,0.4741,0.4522,0.4521,0.452,0.452,0,0.3975,0.4017,0.4047,0.4142,0.4207,0.4266,0.4365,0.4429,0.4463,0.4504,0.4589,0.4588,0.4619,0.4656,0.4646,0.476,0.4739,0.4657,0.4604,0.4698,0.4751,0.4767,0.4535,0.4532,0.4529,0.4527,0,0,0.3927,0.4055,0.406,0.4118,0.4251,0.4312,0.4449,0.4563,0.4636,0.4702,0.477,0.4862,0.4842,0.4861,0.4856,0.4895,0.5015,0.4836,0.4832,0.491,0.5073,0.4907,0.4908,0.494,0.4942,0.4944,0.5095,0,0.3945,0.4051,0.4123,0.425,0.4314,0.4421,0.4534,0.466,0.4743,0.4829,0.4881,0.4937,0.4931,0.4941,0.4992,0.4989,0.5055,0.4985,0.4956,0.4957,0.4808,0.4919,0.4629,0.4723,0.511,0.5113,0.5114,0,0.3957,0.4034,0.4136,0.4295,0.4331,0.4421,0.4597,0.4709,0.4866,0.4917,0.5002,0.5028,0.5142,0.5074,0.5178,0.513,0.5138,0.5136,0.5139,0.4931,0.4817,0.4678,0.4736,0.4622,0.5138,0.5136,0.5134,0,0.3897,0.4041,0.4119,0.4174,0.4364,0.4431,0.4537,0.4712,0.4805,0.496,0.5018,0.5134,0.5169,0.5211,0.5241,0.5214,0.5316,0.5253,0.5134,0.5124,0.4844,0.4803,0.4789,0.5326,0.5325,0.5325,0.5325,0,0.3886,0.3957,0.4087,0.4137,0.4246,0.4387,0.4512,0.4639,0.479,0.4896,0.5034,0.5112,0.5197,0.5265,0.5286,0.5264,0.5349,0.5193,0.5148,0.4898,0.4861,0.4715,0.4677,0.5331,0.5329,0.5328,0.5327,0,0.3844,0.3911,0.4017,0.4175,0.4219,0.4302,0.4483,0.4588,0.4725,0.4863,0.491,0.5108,0.5194,0.5272,0.5337,0.5287,0.5127,0.5256,0.4988,0.4906,0.464,0.4621,0.4439,0.4325,0.5167,0.5163,0.5161,0,0.3844,0.3889,0.402,0.4074,0.4144,0.4266,0.4365,0.453,0.464,0.4848,0.4913,0.5049,0.5117,0.5182,0.5107,0.5108,0.5013,0.4846,0.4723,0.4616,0.4566,0.4448,0.4359,0.4467,0.4459,0.4452,0.4447,0,0.3877,0.3902,0.399,0.4062,0.4149,0.4244,0.4378,0.4433,0.4626,0.4701,0.4808,0.486,0.4928,0.4775,0.4761,0.4727,0.4572,0.4704,0.4641,0.4067,0.3888,0.3755,0.4442,0.4387,0.4393,0.4397,0.44,0.4403,0.3893,0.3932,0.4001,0.4057,0.4144,0.4179,0.4172,0.4304,0.4361,0.4383,0.4582,0.4522,0.448,0.4396,0.4336,0.4052,0.4157,0.3909,0.3927,0.3846,0.3607,0.4189,0.4025,0.4029,0.4032,0.4035,0.4038,0,0.3857,0.3903,0.3996,0.401,0.4015,0.4081,0.4148,0.4075,0.4018,0.4103,0.4096,0.3953,0.3783,0.3732,0.3491,0.3312,0.3188,0.323,0.3018,0.2996,0.3545,0.3381,0.3006,0.3006,0.3007,0.3007,0.3007,0.3007,0.3844,0.3862,0.3877,0.3831,0.3837,0.3725,0.3683,0.36,0.3595,0.3398,0.3263,0.3286,0.3323,0.3159,0.2904,0.2815,0.2655,0.2453,0.2589,0.299,0.3055,0.3117,0.2955,0.2497,0.2497,0.1858,0.1854,0.185]},{"header":{"parameterUnit":"m.s-1","parameterCategory":2,"la1":30.2991,"la2":30.254,"lo1":-89.0895,"lo2":-89.0444,"dy":0.0017,"dx":0.0017,"nx":28,"ny":28,"refTime":"2023-09-23T03:00:00:Z","depth":"0","parameterNumber":3,"parameterNumberName":"V-component_of_CURRENTS"},"data":[0,0,0,0,0,0,0,0,0,0,0,0,0,0,0,0,0,0,0,0,0,0,0,0,0,0,0,0,0,0,0,0,0,0,0,0,0,0,0,0,0,0,0,0,0,0,0,0,0,0,0,0,0,0,0,0,0,0,0.0239,0.0238,0,0.0171,0.017,0.0169,0.0123,0.0123,0.0123,0.0123,0.0052,0.005,0.0048,0,0,0,0,0,0,0,0,0,0,0,0,0,0.0262,0.0262,0.0239,0.0238,0.0238,0.0171,0.017,0.0168,0.0123,0.0123,0.0123,0.0123,0.0052,0.005,0.0048,0,0,0,0,0,0,0,0,0,0,0,0,0,0.0226,0.0262,0.0239,0.0209,0.0206,0.0171,0.0169,0.0168,0.0123,0.0123,0.0123,0.0123,0.0053,0.005,0.0048,0.0031,0,0,0.0039,0.0038,0,0,0,0,0,0,0,0,0.0228,0.0225,0.0214,0.0211,0.0208,0.0158,0.0152,0.0123,0.0123,0.0151,0.0123,0.0123,0.0089,0.0083,0.0066,0.0028,0.0025,0.0039,0.0037,0.0036,0.0035,0,0,0,0,0,0,0,0.0231,0.0227,0.0209,0.0214,0.021,0.0176,0.0171,0.0146,0.0119,0.0149,0.0146,0.0143,0.0087,0.0069,0.0064,0.0024,0.0039,0.0036,0.0035,0.0034,-0.0016,-0.0016,0,0,0,0,0,0,0.0249,0.023,0.0211,0.0207,0.0221,0.0176,0.0171,0.0171,0.0119,0.0112,0.0143,0.0141,0.0074,0.0068,0.0062,0.0064,0.0036,0.0033,0.0032,-0.0016,-0.0016,-0.0015,0,0,0,0,0,0,0.025,0.0248,0.0214,0.0219,0.0213,0.0177,0.0177,0.017,0.0157,0.0116,0.0108,0.0139,0.0073,0.0066,0.0044,0.006,0.0032,0.003,-0.0017,-0.0016,-0.0016,0.0053,0,0,0,0,0,0,0.0251,0.0249,0.0254,0.0221,0.0213,0.0204,0.0178,0.0169,0.0157,0.0154,0.0109,0.0102,0.0073,0.0049,0.0041,0.0056,0.0027,-0.0017,-0.0016,-0.0016,0.005,0.0056,0.0061,0,0,0,0,0,0.0252,0.0265,0.0254,0.0252,0.0222,0.0205,0.0198,0.017,0.0157,0.0156,0.0124,0.0104,0.0048,0.0046,0.0038,0.0052,-0.0017,-0.0017,-0.0016,0.0048,0.0055,0.006,0,0,0,0,0,0,0.0275,0.0261,0.0249,0.0256,0.0236,0.0199,0.0197,0.0176,0.0149,0.0148,0.0104,0.0095,0.0081,0.0056,0.0056,0.0039,0.0013,0.0013,0.0065,0.0071,0.0076,0.0106,0.0025,0,0,0,0,0,0.0284,0.0292,0.0267,0.0273,0.0267,0.0232,0.0221,0.0205,0.0178,0.0165,0.0134,0.0102,0.0076,0.0066,0.0037,0.0029,0.0036,0.0033,0.0038,0.0043,0.0061,0.0087,0.0097,-0.0013,-0.0013,-0.0013,0,0,0.0294,0.0288,0.0291,0.0278,0.026,0.0263,0.0225,0.0219,0.0219,0.0163,0.0152,0.0116,0.0076,0.0064,0.0057,0.0048,0.0077,0.0044,0.0048,0.0064,0.0089,0.01,0.011,-0.0012,-0.0012,-0.0012,0,0,0.0324,0.0313,0.0332,0.0323,0.0309,0.0289,0.0292,0.0261,0.0245,0.0229,0.0189,0.0172,0.0126,0.0108,0.0091,0.0109,0.0099,0.0092,0.0148,0.0173,0.0183,0.0192,0.022,0.0231,0.01,0.0101,0.0101,0,0.0336,0.0355,0.0333,0.0348,0.0349,0.0307,0.0326,0.0302,0.0268,0.0271,0.0239,0.0198,0.0153,0.0158,0.015,0.0124,0.0135,0.0129,0.0183,0.0192,0.02,0.0226,0.0237,0.0104,0.0104,0.0103,0.0103,0,0.0382,0.0393,0.0404,0.0411,0.0409,0.0417,0.0391,0.0385,0.0361,0.0345,0.034,0.0282,0.027,0.0241,0.0193,0.0224,0.0213,0.0184,0.0174,0.0216,0.024,0.0251,0.0109,0.0108,0.0107,0.0106,0,0,0.0414,0.0433,0.0435,0.0456,0.0445,0.0454,0.0458,0.0461,0.0492,0.0444,0.0486,0.041,0.0392,0.0371,0.0318,0.032,0.0365,0.0275,0.0274,0.0316,0.043,0.038,0.0386,0.0347,0.0349,0.0351,0.0427,0,0.0453,0.0503,0.0497,0.0541,0.0565,0.0541,0.056,0.056,0.0551,0.058,0.0532,0.0545,0.0439,0.0447,0.0428,0.0383,0.0395,0.0348,0.0373,0.0374,0.0335,0.0397,0.0384,0.0447,0.0437,0.0439,0.044,0,0.0499,0.0529,0.0584,0.0625,0.0635,0.0659,0.0703,0.0713,0.0734,0.0735,0.0738,0.0707,0.0696,0.0609,0.0573,0.0549,0.0499,0.0458,0.046,0.04,0.0343,0.0401,0.0466,0.0317,0.0456,0.0455,0.0454,0,0.0547,0.0588,0.064,0.0651,0.0691,0.0722,0.0743,0.077,0.081,0.0852,0.0907,0.0872,0.0895,0.0817,0.0698,0.0654,0.067,0.0608,0.0525,0.0521,0.0509,0.05,0.0445,0.0611,0.0611,0.0611,0.0611,0,0.0594,0.0636,0.0673,0.0706,0.0783,0.079,0.0879,0.0894,0.0959,0.1055,0.1,0.1082,0.0949,0.0926,0.0788,0.0693,0.0748,0.056,0.0546,0.0529,0.0522,0.0387,0.0304,0.0614,0.0613,0.0612,0.0612,0,0.0644,0.0662,0.0732,0.0789,0.0811,0.0872,0.0962,0.1041,0.1084,0.1216,0.1247,0.1269,0.1247,0.1095,0.1,0.084,0.0652,0.0686,0.0671,0.0651,0.0402,0.0324,0.0267,0.0215,0.0623,0.0622,0.0622,0,0.0678,0.072,0.0796,0.0852,0.0884,0.097,0.1045,0.1097,0.1194,0.1342,0.1431,0.1459,0.151,0.1333,0.1061,0.0847,0.0682,0.0674,0.0572,0.0409,0.0312,0.0242,0.0199,0.0593,0.0593,0.0592,0.0591,0,0.0752,0.0778,0.0837,0.0945,0.1031,0.1126,0.1238,0.1325,0.143,0.1557,0.173,0.1792,0.164,0.1427,0.1102,0.093,0.056,0.0653,0.0504,0.0305,0.0213,0.015,0.0519,0.0586,0.0586,0.0587,0.0587,0.0587,0.0813,0.0866,0.0947,0.1051,0.1148,0.1277,0.1372,0.1516,0.1684,0.1883,0.1937,0.2062,0.1729,0.1296,0.1036,0.0524,0.054,0.0357,0.0288,0.0242,0.0147,0.0495,0.0517,0.0517,0.0518,0.0518,0.0518,0,0.0891,0.0952,0.1053,0.1175,0.1292,0.1326,0.1502,0.1616,0.1828,0.2028,0.2176,0.2085,0.1677,0.1226,0.0533,0.0201,0.0095,0.0032,-0.0064,-0.0081,0.0256,0.0204,0.0136,0.0136,0.0136,0.0137,0.0137,0.0137,0.0943,0.1043,0.1087,0.1276,0.1365,0.152,0.1619,0.1793,0.1956,0.2165,0.2247,0.2288,0.1934,0.0779,0.0011,-0.0148,-0.0348,-0.04,-0.048,-0.0271,-0.0246,-0.0223,-0.0292,-0.0463,-0.0464,-0.0787,-0.079,-0.0793]}],[{"header":{"parameterUnit":"m.s-1","parameterCategory":2,"la1":30.2991,"la2":30.254,"lo1":-89.0895,"lo2":-89.0444,"dy":0.0017,"dx":0.0017,"nx":28,"ny":28,"refTime":"2023-09-23T03:00:00:Z","depth":"2","parameterNumber":2,"parameterNumberName":"U-component_of_CURRENTS"},"data":[0,0,0,0,0,0,0,0,0,0,0,0,0,0,0,0,0,0,0,0,0,0,0,0,0,0,0,0,0,0,0,0,0,0,0,0,0,0,0,0,0,0,0,0,0,0,0,0,0,0,0,0,0,0,0,0,0,0,0.2777,0.2777,0,0.2803,0.2803,0.2803,0.2826,0.2827,0.2827,0.2828,0.2811,0.281,0.2809,0,0,0,0,0,0,0,0,0,0,0,0,0,0.2762,0.2761,0.2777,0.2778,0.2778,0.2803,0.2803,0.2803,0.2826,0.2827,0.2828,0.2828,0.2812,0.281,0.2809,0,0,0,0,0,0,0,0,0,0,0,0,0,0.2772,0.2761,0.2777,0.2796,0.2798,0.2803,0.2803,0.2803,0.2826,0.2827,0.2828,0.2829,0.2812,0.281,0.2809,0.278,0,0,0.2804,0.2803,0,0,0,0,0,0,0,0,0.2772,0.2772,0.2792,0.2794,0.2797,0.2816,0.2792,0.2794,0.2826,0.2811,0.2828,0.2829,0.281,0.2809,0.2807,0.2779,0.2779,0.2804,0.2803,0.2802,0.2802,0,0,0,0,0,0,0,0.2771,0.2771,0.2783,0.2793,0.2796,0.2808,0.281,0.2792,0.2801,0.2812,0.2815,0.2824,0.2811,0.2808,0.2807,0.2778,0.2804,0.2803,0.2802,0.2801,0.2884,0.2887,0,0,0,0,0,0,0.2773,0.277,0.2782,0.2784,0.2791,0.2808,0.281,0.2805,0.2803,0.2805,0.2823,0.2825,0.2811,0.2808,0.2806,0.2876,0.2802,0.2801,0.28,0.2881,0.2885,0.2888,0,0,0,0,0,0,0.2773,0.2774,0.2781,0.2782,0.2784,0.2807,0.2802,0.2806,0.2834,0.2812,0.2812,0.2852,0.2811,0.2808,0.2838,0.2871,0.28,0.2799,0.2877,0.2882,0.2886,0.2948,0,0,0,0,0,0,0.2772,0.2773,0.2782,0.2782,0.2785,0.281,0.2802,0.2806,0.2838,0.2841,0.2836,0.2834,0.2812,0.2841,0.2837,0.2868,0.2798,0.2873,0.2879,0.2885,0.2942,0.2954,0.2965,0,0,0,0,0,0.2771,0.2778,0.2782,0.2784,0.2792,0.2812,0.2815,0.2831,0.2839,0.2859,0.287,0.2836,0.2876,0.2842,0.2836,0.2867,0.287,0.2878,0.2884,0.2937,0.2952,0.2964,0,0,0,0,0,0,0.2771,0.2781,0.2786,0.2794,0.2815,0.2818,0.2838,0.2849,0.2871,0.288,0.286,0.2859,0.2908,0.2886,0.2849,0.2917,0.2873,0.288,0.2916,0.2929,0.294,0.2962,0.2796,0,0,0,0,0,0.2775,0.2787,0.2799,0.2809,0.2822,0.2835,0.285,0.2862,0.2877,0.2889,0.2886,0.2898,0.2927,0.2927,0.2942,0.2956,0.2981,0.2983,0.2994,0.3004,0.3024,0.3096,0.3115,0.2911,0.2911,0.2911,0,0,0.278,0.2786,0.2795,0.2812,0.2826,0.284,0.2846,0.2877,0.29,0.2881,0.2914,0.2938,0.2947,0.2985,0.3003,0.2968,0.3081,0.3013,0.302,0.3036,0.3105,0.3124,0.3142,0.2916,0.2915,0.2914,0,0,0.2787,0.28,0.2812,0.2833,0.2864,0.2866,0.2884,0.2904,0.2932,0.2973,0.298,0.3035,0.3045,0.3068,0.308,0.3164,0.3151,0.3167,0.3218,0.3287,0.3304,0.3319,0.3391,0.3412,0.3156,0.3156,0.3156,0,0.2801,0.2799,0.2822,0.284,0.2855,0.2881,0.2896,0.2926,0.2957,0.2977,0.3,0.3094,0.3094,0.3162,0.3198,0.3187,0.3226,0.3154,0.33,0.3315,0.3329,0.34,0.3422,0.316,0.3159,0.3159,0.3158,0,0.2805,0.2817,0.2829,0.285,0.2875,0.2894,0.2933,0.2968,0.3008,0.3028,0.3133,0.3185,0.3235,0.3257,0.325,0.3353,0.335,0.3315,0.3256,0.3353,0.3422,0.3444,0.3165,0.3164,0.3163,0.3162,0,0,0.2802,0.2827,0.2833,0.2844,0.2881,0.2899,0.2948,0.2986,0.3065,0.3109,0.3184,0.3279,0.3321,0.3345,0.337,0.344,0.3575,0.3422,0.3423,0.348,0.3744,0.3536,0.354,0.356,0.3564,0.3567,0.3756,0,0.2799,0.2824,0.2832,0.2856,0.2873,0.291,0.2958,0.3006,0.3108,0.3183,0.3243,0.3347,0.3349,0.3426,0.3483,0.3561,0.3634,0.3528,0.3655,0.366,0.345,0.3558,0.3268,0.3393,0.3777,0.3781,0.3783,0,0.2791,0.2812,0.2836,0.2871,0.2883,0.2905,0.3021,0.3081,0.3186,0.3265,0.3368,0.3431,0.3535,0.3537,0.3721,0.3654,0.3709,0.377,0.3777,0.3575,0.3491,0.3359,0.3418,0.382,0.3817,0.3814,0.3812,0,0.2779,0.2804,0.2821,0.2836,0.289,0.2919,0.2959,0.31,0.318,0.3346,0.3436,0.3555,0.3647,0.3744,0.3827,0.3805,0.4008,0.3981,0.3858,0.3845,0.3618,0.3576,0.412,0.4119,0.4119,0.4119,0.4118,0,0.276,0.2779,0.2822,0.2842,0.288,0.2932,0.3041,0.313,0.3265,0.3354,0.3484,0.3607,0.3713,0.381,0.3868,0.3911,0.4038,0.39,0.3883,0.363,0.3589,0.3961,0.3941,0.4126,0.4124,0.4123,0.4121,0,0.2733,0.2769,0.2796,0.2854,0.2877,0.2918,0.3022,0.3125,0.3289,0.3424,0.3464,0.3647,0.3785,0.3863,0.4024,0.3965,0.4034,0.4009,0.3694,0.3633,0.3831,0.3812,0.3941,0.3936,0.3931,0.3927,0.3924,0,0.2721,0.2728,0.2793,0.2825,0.2849,0.2921,0.2979,0.311,0.3209,0.3452,0.3476,0.3664,0.3712,0.3839,0.3814,0.3849,0.395,0.3579,0.3465,0.3844,0.3816,0.3804,0.3792,0.323,0.3221,0.3214,0.3208,0,0.2681,0.2707,0.2733,0.279,0.2845,0.2892,0.2972,0.3014,0.3178,0.3287,0.3413,0.3478,0.3589,0.3456,0.3459,0.3447,0.3536,0.3427,0.3948,0.3269,0.3173,0.3144,0.3157,0.3144,0.3151,0.3156,0.3159,0.3162,0.2652,0.2651,0.2687,0.273,0.2802,0.2829,0.2803,0.2879,0.2937,0.3011,0.3177,0.3174,0.3213,0.3056,0.2969,0.292,0.3178,0.305,0.3074,0.3105,0.2937,0.2832,0.2712,0.2716,0.2719,0.2722,0.2725,0,0.2561,0.2589,0.2622,0.2667,0.2681,0.2744,0.2765,0.2694,0.2665,0.2762,0.2789,0.2565,0.2468,0.2527,0.2357,0.2339,0.235,0.2237,0.2243,0.2308,0.2365,0.216,0.173,0.1726,0.1723,0.172,0,0,0.2522,0.2505,0.2509,0.2513,0.2548,0.2466,0.2421,0.2349,0.2336,0.2248,0.2214,0.2361,0.2452,0.2064,0.2006,0.1838,0.2059,0.1762,0.2566,0.2639,0.2692,0.2843,0.26,0,0,0,0,0]},{"header":{"parameterUnit":"m.s-1","parameterCategory":2,"la1":30.2991,"la2":30.254,"lo1":-89.0895,"lo2":-89.0444,"dy":0.0017,"dx":0.0017,"nx":28,"ny":28,"refTime":"2023-09-23T03:00:00:Z","depth":"2","parameterNumber":3,"parameterNumberName":"V-component_of_CURRENTS"},"data":[0,0,0,0,0,0,0,0,0,0,0,0,0,0,0,0,0,0,0,0,0,0,0,0,0,0,0,0,0,0,0,0,0,0,0,0,0,0,0,0,0,0,0,0,0,0,0,0,0,0,0,0,0,0,0,0,0,0,0.0131,0.013,0,0.0092,0.0092,0.0091,0.0055,0.0055,0.0054,0.0054,0.0003,0.0002,0.0001,0,0,0,0,0,0,0,0,0,0,0,0,0,0.0142,0.0142,0.0131,0.013,0.013,0.0092,0.0092,0.0091,0.0055,0.0055,0.0054,0.0054,0.0003,0.0002,0.0001,0,0,0,0,0,0,0,0,0,0,0,0,0,0.0124,0.0142,0.0131,0.0107,0.0105,0.0092,0.0092,0.0091,0.0055,0.0055,0.0054,0.0053,0.0003,0.0002,0.0,0.0005,0,0,-0.0004,-0.0005,0,0,0,0,0,0,0,0,0.0125,0.0123,0.0111,0.0109,0.0106,0.0078,0.0077,0.0062,0.0055,0.0074,0.0054,0.0053,0.0027,0.0024,0.0018,0.0002,0.0,-0.0004,-0.0005,-0.0006,-0.0006,0,0,0,0,0,0,0,0.0126,0.0125,0.0115,0.0111,0.0108,0.0088,0.0085,0.0074,0.0054,0.0072,0.007,0.0066,0.0026,0.0019,0.0016,-0.0001,-0.0004,-0.0005,-0.0006,-0.0007,-0.0031,-0.0031,0,0,0,0,0,0,0.0134,0.0126,0.0117,0.0114,0.0114,0.0089,0.0085,0.0088,0.0055,0.0049,0.0066,0.0064,0.0022,0.0018,0.0014,0.0019,-0.0006,-0.0007,-0.0008,-0.0031,-0.0031,-0.0031,0,0,0,0,0,0,0.0134,0.0134,0.0118,0.0119,0.0116,0.0089,0.0092,0.0087,0.008,0.005,0.0044,0.0064,0.0021,0.0016,-0.0001,0.0017,-0.0008,-0.0009,-0.0032,-0.0031,-0.0031,0.0027,0,0,0,0,0,0,0.0135,0.0134,0.0139,0.012,0.0116,0.0117,0.0093,0.0087,0.0079,0.0075,0.0047,0.0041,0.0021,0.0001,-0.0003,0.0014,-0.001,-0.0032,-0.0032,-0.0031,0.0025,0.003,0.0033,0,0,0,0,0,0.0135,0.015,0.0139,0.0138,0.0123,0.0117,0.0114,0.0092,0.0079,0.0082,0.0055,0.0042,0.0001,0.0,-0.0004,0.0013,-0.0032,-0.0032,-0.0031,0.0023,0.0029,0.0033,0,0,0,0,0,0,0.0155,0.0147,0.0135,0.0145,0.0133,0.0111,0.0113,0.0097,0.0079,0.0075,0.0043,0.0036,0.0026,0.0009,0.0009,0.0005,-0.0016,-0.0017,0.0026,0.0031,0.0035,0.0064,-0.0011,0,0,0,0,0,0.0162,0.0172,0.0155,0.0162,0.0159,0.0136,0.013,0.0118,0.0099,0.009,0.0067,0.0043,0.0026,0.002,0.0,0.0001,-0.001,0.0008,0.0013,0.0016,0.0036,0.0028,0.0034,-0.0029,-0.0029,-0.0029,0,0,0.017,0.0168,0.0171,0.0167,0.0156,0.0164,0.0131,0.0131,0.0139,0.0089,0.0088,0.0056,0.0027,0.0023,0.0019,0.0012,0.0026,0.0017,0.0021,0.0038,0.0029,0.0036,0.0041,-0.0029,-0.0029,-0.0029,0,0,0.0198,0.0191,0.0208,0.0206,0.0198,0.0187,0.0189,0.017,0.0161,0.0152,0.0119,0.01,0.007,0.006,0.0049,0.0067,0.0044,0.0055,0.0106,0.0098,0.0104,0.0109,0.0095,0.0099,0.0062,0.0062,0.0062,0,0.0206,0.023,0.0211,0.023,0.0237,0.0202,0.0225,0.0213,0.019,0.0199,0.0159,0.0126,0.0094,0.0105,0.0102,0.008,0.0066,0.0091,0.0106,0.011,0.0114,0.0099,0.0102,0.0065,0.0065,0.0064,0.0064,0,0.0248,0.0267,0.0279,0.0293,0.0296,0.0311,0.0296,0.03,0.0278,0.0268,0.0262,0.0205,0.0195,0.0171,0.0138,0.0156,0.0133,0.0109,0.0098,0.0125,0.0106,0.0108,0.0069,0.0068,0.0067,0.0067,0,0,0.0274,0.0303,0.031,0.0335,0.0335,0.0349,0.0367,0.0386,0.042,0.0368,0.0401,0.0342,0.0313,0.0299,0.0251,0.0231,0.023,0.0184,0.0182,0.0181,0.0208,0.0159,0.0155,0.0206,0.0207,0.0207,0.0182,0,0.0314,0.0371,0.0372,0.0427,0.0456,0.0446,0.0475,0.0488,0.048,0.0501,0.0445,0.0449,0.0362,0.0358,0.0323,0.0258,0.024,0.024,0.0175,0.0174,0.0134,0.0158,0.0186,0.0162,0.0183,0.0184,0.0184,0,0.036,0.0396,0.0456,0.0517,0.053,0.0559,0.0617,0.0638,0.0657,0.0654,0.0639,0.0594,0.0562,0.0478,0.0388,0.039,0.0312,0.0247,0.0244,0.0185,0.0128,0.014,0.0165,0.0187,0.0187,0.0186,0.0186,0,0.0404,0.0462,0.0517,0.0534,0.0586,0.0626,0.0659,0.0693,0.0741,0.0759,0.0795,0.073,0.0714,0.0605,0.0456,0.0431,0.0348,0.0302,0.0186,0.0181,0.0188,0.0182,0.0252,0.0252,0.0252,0.0252,0.0252,0,0.0456,0.0507,0.0548,0.0585,0.0671,0.0686,0.0783,0.0809,0.0866,0.0948,0.0881,0.0917,0.0744,0.0666,0.0515,0.0357,0.0398,0.0208,0.0178,0.0205,0.0202,0.0209,0.0204,0.0251,0.0252,0.0252,0.0252,0,0.0501,0.0523,0.0599,0.0668,0.0695,0.0761,0.087,0.0952,0.0988,0.1091,0.1108,0.1069,0.0966,0.0779,0.0606,0.0449,0.0296,0.0231,0.0266,0.024,0.012,0.0118,0.011,0.0108,0.0107,0.0106,0.0105,0,0.0531,0.0571,0.0657,0.0719,0.0757,0.0854,0.0939,0.1005,0.1096,0.119,0.1252,0.1189,0.1151,0.0866,0.0592,0.0333,0.0291,0.0179,0.013,0.0138,0.0108,0.0109,0.011,0.0161,0.0161,0.016,0.016,0,0.0595,0.062,0.0681,0.0801,0.0899,0.1007,0.1127,0.121,0.1306,0.1386,0.1464,0.144,0.1188,0.0922,0.0559,0.0381,0.0215,0.0159,0.0186,0.0181,0.018,0.0153,0.0153,0.0156,0.0156,0.0157,0.0157,0.0157,0.0641,0.0696,0.078,0.0896,0.1005,0.1143,0.1238,0.1364,0.1495,0.1595,0.1583,0.1536,0.1267,0.0784,0.049,0.0178,0.0194,0.0071,0.0075,0.0079,0.0078,0.0073,0.0029,0.0029,0.0029,0.0028,0.0028,0,0.0705,0.0771,0.0881,0.1013,0.1133,0.1184,0.1353,0.1441,0.1579,0.1649,0.1675,0.1401,0.1126,0.0811,0.0357,0.0082,0.0071,-0.0018,0.0039,0.0046,0.0051,0.005,-0.0008,-0.0009,-0.001,-0.0011,0,0,0.0747,0.0851,0.0904,0.1093,0.1188,0.1336,0.1425,0.1536,0.1608,0.1645,0.1608,0.1548,0.1205,0.086,0.0506,0.0249,0.02,0.0188,0.0249,0.0366,0.0374,0.0138,0.0147,0,0,0,0,0]}],[{"header":{"parameterUnit":"m.s-1","parameterCategory":2,"la1":30.2991,"la2":30.254,"lo1":-89.0895,"lo2":-89.0444,"dy":0.0017,"dx":0.0017,"nx":28,"ny":28,"refTime":"2023-09-23T03:00:00:Z","depth":"4","parameterNumber":2,"parameterNumberName":"U-component_of_CURRENTS"},"data":[0,0,0,0,0,0,0,0,0,0,0,0,0,0,0,0,0,0,0,0,0,0,0,0,0,0,0,0,0,0,0,0,0,0,0,0,0,0,0,0,0,0,0,0,0,0,0,0,0,0,0,0,0,0,0,0,0,0,0.1471,0.1471,0,0.1496,0.1496,0.1496,0.1552,0.1553,0.1555,0.1556,0.1599,0.1599,0.1599,0,0,0,0,0,0,0,0,0,0,0,0,0,0.1472,0.1471,0.1471,0.1471,0.1471,0.1496,0.1496,0.1496,0.1552,0.1553,0.1555,0.1556,0.1599,0.1599,0.1599,0,0,0,0,0,0,0,0,0,0,0,0,0,0.1481,0.1471,0.1471,0.1502,0.1506,0.1496,0.1496,0.1496,0.1552,0.1553,0.1555,0.1557,0.1599,0.1599,0.1599,0.1563,0,0,0.1599,0.1599,0,0,0,0,0,0,0,0,0.148,0.1481,0.1497,0.15,0.1504,0.1523,0.1512,0.152,0.1551,0.1533,0.1556,0.1558,0.1574,0.1576,0.1576,0.1565,0.1567,0.1599,0.1599,0.1599,0.1599,0,0,0,0,0,0,0,0.148,0.148,0.148,0.1498,0.1502,0.1516,0.1519,0.1514,0.1543,0.1535,0.1539,0.1543,0.1576,0.1576,0.1578,0.1568,0.1599,0.1599,0.1599,0.1599,0.1672,0.1674,0,0,0,0,0,0,0.1475,0.1479,0.1479,0.1481,0.1497,0.1515,0.1518,0.1515,0.1543,0.1549,0.1541,0.1545,0.1575,0.1577,0.1579,0.1659,0.1599,0.1599,0.1599,0.167,0.1673,0.1675,0,0,0,0,0,0,0.1475,0.1475,0.1478,0.1482,0.1483,0.1513,0.1508,0.1514,0.1557,0.1548,0.1554,0.1583,0.1576,0.1579,0.1628,0.1656,0.1599,0.1599,0.1668,0.1671,0.1674,0.174,0,0,0,0,0,0,0.1475,0.1474,0.149,0.1481,0.1483,0.1503,0.1507,0.1513,0.1554,0.1561,0.1585,0.1588,0.1578,0.1628,0.1628,0.1655,0.1599,0.1666,0.1669,0.1673,0.1736,0.1745,0.1753,0,0,0,0,0,0.1475,0.1478,0.149,0.1491,0.1496,0.1505,0.1508,0.1534,0.1555,0.1579,0.1609,0.159,0.1651,0.163,0.1629,0.1657,0.1664,0.1668,0.1672,0.1732,0.1743,0.1753,0,0,0,0,0,0,0.1485,0.1483,0.1497,0.15,0.1519,0.1515,0.1537,0.1555,0.1595,0.1614,0.1612,0.1618,0.1669,0.1658,0.1635,0.1691,0.1654,0.1658,0.17,0.171,0.1719,0.1702,0.1599,0,0,0,0,0,0.1493,0.1502,0.1504,0.1516,0.1523,0.154,0.1554,0.1573,0.1595,0.1616,0.1633,0.1655,0.1676,0.1693,0.1703,0.1731,0.1739,0.175,0.1759,0.1766,0.1754,0.1827,0.1842,0.1689,0.1689,0.1689,0,0,0.1502,0.1503,0.1511,0.1521,0.1534,0.1536,0.1554,0.1585,0.1598,0.1611,0.1654,0.1686,0.1692,0.1731,0.1752,0.1732,0.1815,0.1772,0.1778,0.1761,0.1833,0.1848,0.1861,0.1692,0.1691,0.1691,0,0,0.1509,0.1525,0.1532,0.1544,0.157,0.1568,0.1587,0.1608,0.1638,0.1675,0.1698,0.1759,0.1773,0.1797,0.1805,0.1867,0.186,0.1874,0.1902,0.1975,0.1988,0.1999,0.203,0.2044,0.1878,0.1878,0.1878,0,0.1528,0.1523,0.154,0.1545,0.1557,0.1583,0.1593,0.1609,0.1652,0.1684,0.17,0.1783,0.1798,0.1853,0.188,0.1884,0.1914,0.1861,0.1986,0.1997,0.2008,0.2037,0.2051,0.1882,0.1881,0.1881,0.188,0,0.1521,0.1535,0.154,0.1548,0.1567,0.1581,0.1598,0.1635,0.1674,0.1699,0.1787,0.1831,0.1887,0.1906,0.1907,0.1994,0.1987,0.1991,0.1957,0.2028,0.2053,0.2067,0.1887,0.1886,0.1885,0.1884,0,0,0.1516,0.1532,0.1539,0.1551,0.1572,0.1583,0.161,0.1646,0.1683,0.1747,0.1816,0.1876,0.1936,0.195,0.1988,0.2045,0.2151,0.2053,0.2056,0.2078,0.2296,0.2142,0.2141,0.2192,0.2195,0.2197,0.2284,0,0.1512,0.1518,0.153,0.1547,0.155,0.1586,0.1608,0.1654,0.1704,0.1775,0.1856,0.1934,0.194,0.2006,0.2065,0.2144,0.219,0.2125,0.2227,0.2229,0.208,0.2153,0.2206,0.2294,0.2297,0.2299,0.2301,0,0.1491,0.1501,0.1518,0.1552,0.1561,0.1584,0.1643,0.1672,0.1763,0.1813,0.1911,0.1978,0.2095,0.2091,0.224,0.2208,0.2248,0.2288,0.2293,0.2127,0.2099,0.221,0.2325,0.2323,0.2321,0.232,0.2318,0,0.1464,0.1491,0.1508,0.1517,0.1555,0.1597,0.1634,0.1706,0.1755,0.1871,0.1941,0.2058,0.2173,0.2243,0.2329,0.231,0.2471,0.2456,0.234,0.2329,0.2412,0.2398,0.2536,0.2536,0.2535,0.2535,0.2535,0,0.1428,0.1447,0.1509,0.1516,0.1559,0.1606,0.1669,0.1716,0.1822,0.1886,0.1989,0.2071,0.2226,0.2332,0.2364,0.2394,0.2508,0.2344,0.2347,0.2437,0.2426,0.2421,0.2406,0.2538,0.2538,0.2537,0.2537,0,0.138,0.1419,0.1443,0.1512,0.1545,0.1585,0.1691,0.1728,0.184,0.1939,0.1996,0.2149,0.2278,0.2379,0.2514,0.2446,0.248,0.2452,0.2532,0.2539,0.2274,0.2263,0.2327,0.2323,0.2319,0.2316,0.2313,0,0.1342,0.135,0.1437,0.1468,0.1508,0.1581,0.1622,0.1729,0.1777,0.1957,0.2003,0.2185,0.2265,0.2331,0.243,0.2471,0.244,0.2417,0.2334,0.2259,0.2257,0.2251,0.2245,0.2307,0.2306,0.2305,0.2304,0,0.1263,0.1315,0.134,0.1409,0.1468,0.1507,0.1593,0.1625,0.1746,0.188,0.1968,0.2032,0.2169,0.2253,0.2307,0.2323,0.241,0.2375,0.2382,0.2304,0.2235,0.2235,0.2234,0.229,0.2292,0.2293,0.2294,0,0.1214,0.1214,0.1267,0.1323,0.1393,0.1415,0.1463,0.153,0.1598,0.1802,0.183,0.2,0.2158,0.2178,0.2222,0.2235,0.2195,0.2096,0.2117,0.2133,0.2027,0.1907,0.1869,0,0,0,0,0,0.115,0.1143,0.1175,0.1216,0.1285,0.1329,0.1429,0.148,0.1622,0.1642,0.1731,0.1835,0.1914,0.2003,0.1982,0.2128,0.2196,0.2087,0.209,0.2215,0.2231,0.2121,0,0,0,0,0,0,0.1101,0.1123,0.1132,0.1124,0.1144,0.1189,0.125,0.1339,0.1362,0.1527,0.1598,0.1713,0.1839,0.1927,0.195,0.1973,0.193,0.2195,0.2189,0.2206,0.222,0.2233,0.2126,0,0,0,0,0]},{"header":{"parameterUnit":"m.s-1","parameterCategory":2,"la1":30.2991,"la2":30.254,"lo1":-89.0895,"lo2":-89.0444,"dy":0.0017,"dx":0.0017,"nx":28,"ny":28,"refTime":"2023-09-23T03:00:00:Z","depth":"4","parameterNumber":3,"parameterNumberName":"V-component_of_CURRENTS"},"data":[0,0,0,0,0,0,0,0,0,0,0,0,0,0,0,0,0,0,0,0,0,0,0,0,0,0,0,0,0,0,0,0,0,0,0,0,0,0,0,0,0,0,0,0,0,0,0,0,0,0,0,0,0,0,0,0,0,0,0.0162,0.0162,0,0.015,0.015,0.015,0.013,0.0129,0.0129,0.0128,0.0117,0.0117,0.0117,0,0,0,0,0,0,0,0,0,0,0,0,0,0.0149,0.0149,0.0162,0.0162,0.0162,0.015,0.015,0.015,0.013,0.0129,0.0129,0.0128,0.0117,0.0117,0.0117,0,0,0,0,0,0,0,0,0,0,0,0,0,0.0148,0.0149,0.0162,0.015,0.0148,0.015,0.015,0.015,0.013,0.0129,0.0129,0.0128,0.0117,0.0117,0.0117,0.0131,0,0,0.0118,0.0118,0,0,0,0,0,0,0,0,0.0148,0.0148,0.0152,0.0151,0.0149,0.014,0.0141,0.0144,0.013,0.0137,0.0128,0.0128,0.0125,0.0125,0.0125,0.0131,0.013,0.0118,0.0118,0.0118,0.0118,0,0,0,0,0,0,0,0.0148,0.0149,0.0158,0.0152,0.015,0.0139,0.0138,0.0142,0.0135,0.0137,0.0135,0.0133,0.0125,0.0124,0.0124,0.013,0.0118,0.0118,0.0118,0.0118,0.0126,0.0127,0,0,0,0,0,0,0.015,0.0149,0.0158,0.0157,0.0146,0.0139,0.0139,0.0144,0.0135,0.0133,0.0134,0.0132,0.0124,0.0124,0.0124,0.0137,0.0118,0.0118,0.0118,0.0126,0.0127,0.0127,0,0,0,0,0,0,0.015,0.0152,0.0159,0.0152,0.0152,0.014,0.0147,0.0144,0.0144,0.0133,0.0131,0.0136,0.0124,0.0123,0.0119,0.0136,0.0118,0.0118,0.0126,0.0126,0.0127,0.0164,0,0,0,0,0,0,0.015,0.0152,0.0158,0.0152,0.0152,0.0161,0.0147,0.0145,0.0144,0.0142,0.0134,0.0132,0.0123,0.0118,0.0119,0.0136,0.0119,0.0126,0.0126,0.0127,0.0163,0.0166,0.0168,0,0,0,0,0,0.015,0.0163,0.0158,0.0159,0.0161,0.0162,0.0161,0.015,0.0144,0.0147,0.0135,0.0132,0.012,0.0119,0.0119,0.0137,0.0126,0.0126,0.0126,0.0162,0.0165,0.0168,0,0,0,0,0,0,0.0159,0.0162,0.0156,0.0169,0.0165,0.0158,0.0161,0.0155,0.0148,0.0149,0.0134,0.0131,0.0133,0.0127,0.0126,0.0138,0.0124,0.0124,0.015,0.0153,0.0156,0.0172,0.0119,0,0,0,0,0,0.0164,0.0176,0.017,0.0181,0.018,0.0171,0.0171,0.0167,0.016,0.0157,0.0149,0.0141,0.0136,0.0137,0.0131,0.0142,0.0116,0.0152,0.0155,0.0157,0.0169,0.0129,0.013,0.0128,0.0128,0.0128,0,0,0.0169,0.0173,0.0179,0.0183,0.018,0.0192,0.017,0.0176,0.0189,0.0158,0.0169,0.015,0.0138,0.0144,0.0146,0.0142,0.0143,0.0158,0.016,0.017,0.013,0.013,0.013,0.0128,0.0128,0.0128,0,0,0.0189,0.019,0.0206,0.0209,0.0211,0.0209,0.0212,0.0208,0.0207,0.0213,0.019,0.0176,0.0179,0.0167,0.0164,0.0178,0.0154,0.018,0.0214,0.0176,0.0176,0.0175,0.0136,0.0132,0.0187,0.0187,0.0187,0,0.0194,0.0219,0.0209,0.0227,0.0238,0.022,0.0242,0.0242,0.0236,0.0239,0.0223,0.0206,0.0191,0.0195,0.0197,0.0187,0.0159,0.0205,0.0179,0.0179,0.0178,0.0138,0.0133,0.0189,0.0188,0.0188,0.0188,0,0.0227,0.0249,0.0259,0.028,0.0286,0.0304,0.0302,0.0308,0.0303,0.0297,0.0293,0.0261,0.0253,0.0243,0.0228,0.022,0.0199,0.0182,0.0173,0.018,0.0137,0.0131,0.0191,0.0191,0.019,0.019,0,0,0.0241,0.0276,0.0282,0.0305,0.032,0.0332,0.0355,0.0367,0.0381,0.0364,0.0374,0.035,0.0324,0.0317,0.0288,0.0255,0.0216,0.0223,0.022,0.0188,0.0128,0.0125,0.0118,0.0192,0.0191,0.0191,0.0098,0,0.0272,0.0322,0.0331,0.0381,0.0406,0.0406,0.0431,0.0439,0.0431,0.0433,0.0398,0.0394,0.0356,0.035,0.0311,0.024,0.0203,0.0243,0.0123,0.012,0.0119,0.0112,0.0189,0.0094,0.0092,0.0091,0.009,0,0.0305,0.0338,0.0393,0.0442,0.0453,0.0482,0.0515,0.0533,0.0528,0.0521,0.0501,0.0465,0.0428,0.0388,0.0277,0.0303,0.0226,0.0163,0.0157,0.0142,0.0107,0.0085,0.0079,0.008,0.0081,0.0082,0.0082,0,0.0329,0.0384,0.0433,0.045,0.0497,0.0528,0.0555,0.0563,0.0588,0.0575,0.0581,0.0519,0.0499,0.0394,0.0272,0.0272,0.0136,0.0116,0.0039,0.0037,0.0051,0.0052,0.0034,0.0034,0.0034,0.0035,0.0035,0,0.0364,0.0407,0.0453,0.0484,0.0547,0.0567,0.0627,0.0636,0.0658,0.0687,0.0632,0.0628,0.0499,0.0408,0.0286,0.0147,0.0144,0.0047,0.0015,0.0067,0.0072,0.0046,0.0048,0.0031,0.0032,0.0033,0.0033,0,0.0385,0.0416,0.0477,0.0539,0.0563,0.0611,0.069,0.0729,0.0739,0.0772,0.0776,0.0712,0.0597,0.0452,0.0276,0.0177,0.0034,-0.0017,0.0051,0.0025,-0.0044,-0.0039,-0.0109,-0.0109,-0.011,-0.0111,-0.0111,0,0.0401,0.0435,0.0512,0.056,0.0597,0.0671,0.0728,0.0769,0.0812,0.0818,0.0839,0.075,0.0685,0.0443,0.0279,0.0048,0.0016,-0.0065,-0.0053,-0.0034,-0.0058,-0.0052,-0.0045,-0.0112,-0.0112,-0.0113,-0.0113,0,0.0431,0.0457,0.0505,0.0597,0.067,0.0749,0.0832,0.087,0.0913,0.0919,0.0892,0.0772,0.0644,0.0454,0.0278,0.0108,-0.0017,-0.0073,-0.0072,-0.0062,-0.004,-0.0061,-0.0054,-0.0115,-0.0115,-0.0115,-0.0114,0,0.0445,0.0482,0.0546,0.063,0.0718,0.0805,0.0849,0.0907,0.0947,0.0956,0.0939,0.0798,0.072,0.0484,0.0315,0.0156,0.0114,0.0053,0.0046,0.0046,0.0118,0.0171,0.0137,0,0,0,0,0,0.0457,0.0506,0.0581,0.0671,0.0758,0.0814,0.0909,0.0948,0.0983,0.0975,0.0964,0.0843,0.0609,0.0507,0.0351,0.0289,0.0076,0.0097,-0.0,-0.0129,-0.0126,-0.0068,0,0,0,0,0,0,0.0468,0.0534,0.0575,0.0687,0.0754,0.0854,0.0918,0.0947,0.0949,0.0956,0.0842,0.0787,0.0566,0.0697,0.0341,0.0293,0.0205,-0.0008,-0.0012,-0.013,-0.0128,-0.0125,-0.0065,0,0,0,0,0]}]]